NOAA NWS Hourly Roundups by Site

Regional Weather Roundup for State College, PA

To Select Another Site Choose from List

Select Site:  

000
ASUS41 KCTP 070610
RWRCTP

REGIONAL WEATHER ROUNDUP
NATIONAL WEATHER SERVICE STATE COLLEGE PA
100 AM EST WED DEC 07 2022

Note: "fair" indicates few or no clouds below 12,000 feet with no
significant weather and/or obstructions to visibility.

* = STATION THAT DOES NOT REPORT PRECIPITATION /E.G. RAIN...SNOW...ETC/
    THUNDER OR FOG.

PAZ002>004-007>009-013>016-020>023-029>032-070700-
WESTERN PENNSYLVANIA

CITY           SKY/WX    TMP DP  RH WIND       PRES   REMARKS
ERIE           MOCLDY    44  44 100 CALM      30.04F
MEADVILLE      FOG       44  44 100 CALM      30.04F VSB 3/4
FRANKLIN       LGT RAIN  45  45 100 S5        30.06S VSB 1/2
NEW CASTLE     FOG       48  48 100 CALM      30.06S VSB 3/4
BEAVER COUNTY  FOG       50  48  93 S3        30.05F VSB 1/4
BUTLER         LGT RAIN  50  50 100 S5        30.07S VSB 3/4
PITTSBURGH INT LGT RAIN  50  50 100 CALM      30.05S VSB 1/2
PITTSBURGH     FOG       55  53  93 S5        30.05S VSB 1/2
INDIANA*       FOG       52  52 100 CALM      30.10F VSB 1/4
LATROBE        CLOUDY    57  57 100 S9        30.06F
WASHINGTON CO* CLOUDY    55  55 100 SW3       30.08S
$$

PAZ004>006-010>012-017>019-024>028-033>037-041-042-045-046-049>053-070700-
CENTRAL PENNSYLVANIA

CITY           SKY/WX    TMP DP  RH WIND       PRES   REMARKS
BRADFORD       CLOUDY    44  41  89 SE5       30.07S FOG
ST MARYS       CLOUDY    43  41  93 CALM      30.11S VSB 1/4
DUBOIS         FOG       44  42  93 CALM      30.07S VSB 3/4
CLEARFIELD     LGT RAIN  41  40  96 N5        30.10F VSB 1/2
JOHNSTOWN      FOG       51  51 100 S7        30.08F VSB 3/4
SOMERSET       CLOUDY    52  52 100 SW7       30.11S
ALTOONA        FOG       43  42  97 CALM      30.13F VSB 1
STATE COLLEGE  CLOUDY    41  41 100 W3        30.14S FOG
REEDSVILLE     FOG       41  41 100 CALM      30.16S VSB 1/4
WELLSBORO      FOG       41  41 100 SW6       30.09S VSB 1/2
WILLIAMSPORT   CLOUDY    46  43  89 VRB3      30.14F
SELINSGROVE    CLOUDY    42  42 100 CALM      30.17S FOG
FT INDIANTOWN    N/A     45  45 100 MISG      30.16S FOG
CAPITAL CITY   CLOUDY    46  43  89 CALM      30.19R FOG
HARRISBURG     FOG       42  41  96 CALM      30.18F VSB 1
YORK           CLOUDY    44  42  93 CALM      30.18S
$$

PAZ038>040-043-044-047-048-054-055-060>062-067>071-070700-
EASTERN PENNSYLVANIA

CITY           SKY/WX    TMP DP  RH WIND       PRES   REMARKS
TOWANDA        CLOUDY    48  48 100 CALM      30.14S
SCRANTON       LGT RAIN  51  50  96 SW3       30.14F FOG
MOUNT POCONO   LGT RAIN  49  49 100 S9G20     30.16R FOG
HAZLETON       RAIN      48  46  93 CALM      30.18S
LEHIGHTON      DRIZZLE   52  48  87 CALM      30.18S
ALLENTOWN      LGT RAIN  52  51  97 CALM      30.18S FOG
QN CITY/ALNTWN LGT RAIN  52  52 100 CALM      30.20R
QUAKERTOWN*      N/A     54  54 100 CALM      30.19S FOG
PERKASIE*      CLOUDY    54  54 100 SW3       30.20S FOG
DOYLESTOWN     CLOUDY    55  52  89 VRB3      30.18F
READING        CLOUDY    52  50  93 CALM      30.17S FOG
LANCASTER      LGT RAIN  50  48  93 CALM      30.18S FOG
COATESVILLE    FOG       50  50 100 VRB5      30.20R VSB 3/4
WEST CHESTER   CLOUDY    52  52 100 SW3       30.20S FOG
POTTSTOWN      NOT AVBL
BLUE BELL      LGT RAIN  54 N/A N/A S5        30.19F FOG
NORTH PHILA    CLOUDY    55  53  93 SW5       30.21S FOG
PHILADELPHIA   FOG       53  53 100 W5        30.20F VSB 1
$$


 

View Past Reports for State College, PA.

Products Courtesy of NOAA-NWS
NWS Information Parsing Script by Ken True at Saratoga Weather - Script by SE Lincoln Weather.